Date String (YYYY-MM-DD hh:mm:ss) UTC,Instrument flags,Ambient pressure (hPa),Sample flow (lpm),Bypass flow (lpm),Sample temperature (°C),Ambient temperature (°C),ASC tube jacket temperature (°C),LED temperature (°C),Box temperature (°C),Sample RH (%),Span deviation,Mass concentration (μg/m³),Mass concentration (μg/m³),Mass concentration (μg/m³)
DateTimeUTC,F1_M11,P_M11,Q1_M11,Q2_M11,T1_M11,T2_M11,T3_M11,T4_M11,T5_M11,U1_M11,ZSPAN_M11,X0_M11,X2_M11,X1_M11
2021-08-24 23:00:00,,0827.1,5.00,0.00,28.7,26.0,00.0,37.8,30.3,15.6,0002.9,0010.89,0004.65,0004.13
2021-08-24 23:01:00,,0826.9,5.01,0.00,28.7,26.4,00.0,37.8,30.4,15.1,0002.9,0011.55,0004.64,0004.14
2021-08-24 23:02:00,,0826.9,4.99,0.00,28.8,26.9,00.0,37.8,30.5,15.8,0003.0,0011.52,0004.61,0004.14
2021-08-24 23:03:00,,0826.8,4.99,0.00,28.8,27.3,00.0,37.8,30.7,14.7,0002.8,0011.86,0004.62,0004.13
2021-08-24 23:04:00,,0826.8,5.01,0.00,28.9,27.7,00.0,37.8,30.8,14.3,0002.3,0011.57,0004.62,0004.14
2021-08-24 23:05:00,,0826.9,5.00,0.00,28.9,26.9,00.0,37.8,30.6,14.4,0002.3,0012.62,0004.64,0004.14
2021-08-24 23:06:00,,0826.9,5.00,0.00,28.8,25.5,00.0,37.8,30.2,14.8,0002.1,0012.81,0004.65,0004.14
2021-08-24 23:07:00,,0827.0,5.02,0.00,28.7,25.7,00.0,37.8,30.2,15.0,0001.6,0013.03,0004.65,0004.14
2021-08-24 23:08:00,,0827.0,4.98,0.00,28.7,26.2,00.0,37.8,30.3,15.2,0001.7,0012.85,0004.64,0004.13
2021-08-24 23:09:00,,0827.0,5.01,0.00,28.7,26.6,00.0,37.8,30.4,16.3,0002.2,0012.70,0004.61,0004.13
2021-08-24 23:10:00,,0826.8,5.00,0.00,28.7,27.0,00.0,37.8,30.6,15.5,0003.4,0012.19,0004.61,0004.12
2021-08-24 23:11:00,,0827.1,5.00,0.00,28.8,27.4,00.0,37.8,30.7,15.7,0003.5,0011.55,0004.60,0004.12
2021-08-24 23:12:00,,0827.0,4.99,0.00,28.9,27.7,00.0,37.8,30.8,15.8,0003.3,0010.84,0004.58,0004.11
2021-08-24 23:13:00,,0826.9,5.01,0.00,28.9,27.8,00.0,37.8,30.8,15.1,0003.2,0011.34,0004.59,0004.11
2021-08-24 23:14:00,,0827.0,5.00,0.00,28.9,26.3,00.0,37.8,30.4,14.0,0003.2,0011.31,0004.59,0004.12
2021-08-24 23:15:00,,0827.0,5.00,0.00,28.7,25.6,00.0,37.8,30.1,15.3,0003.3,0011.50,0004.61,0004.11
2021-08-24 23:16:00,,0826.8,4.99,0.00,28.7,26.0,00.0,37.8,30.3,14.9,0002.7,0010.80,0004.60,0004.12
2021-08-24 23:17:00,,0826.8,5.01,0.00,28.7,26.5,00.0,37.8,30.4,14.2,0002.5,0010.51,0004.58,0004.11
2021-08-24 23:18:00,,0826.9,4.99,0.00,28.7,26.9,00.0,37.8,30.5,14.2,0002.5,0011.42,0004.57,0004.10
2021-08-24 23:19:00,,0826.9,5.00,0.00,28.8,27.3,00.0,37.8,30.7,14.6,0002.4,0012.52,0004.59,0004.11
2021-08-24 23:20:00,,0826.8,4.98,0.00,28.9,27.7,00.0,37.8,30.8,14.6,0001.6,0013.26,0004.60,0004.11
2021-08-24 23:21:00,,0826.9,5.02,0.00,28.9,27.7,00.0,37.8,30.8,14.5,0000.8,0013.23,0004.59,0004.10
2021-08-24 23:22:00,,0826.9,5.00,0.00,28.9,26.2,00.0,37.8,30.3,14.8,0000.5,0013.15,0004.56,0004.10
2021-08-24 23:23:00,,0826.9,4.99,0.00,28.7,25.4,00.0,37.8,30.1,15.0,0000.7,0012.89,0004.55,0004.10
2021-08-24 23:24:00,,0827.0,5.00,0.00,28.7,25.9,00.0,37.8,30.2,15.2,0001.0,0012.13,0004.54,0004.10
2021-08-24 23:25:00,,0826.9,4.99,0.00,28.7,26.3,00.0,37.8,30.3,15.3,0001.1,0011.94,0004.53,0004.10
2021-08-24 23:26:00,,0826.9,4.99,0.00,28.7,26.7,00.0,37.8,30.4,16.0,0001.5,0011.67,0004.49,0004.10
2021-08-24 23:27:00,,0826.9,5.01,0.00,28.7,27.1,00.0,37.8,30.6,16.5,0002.2,0011.46,0004.48,0004.10
2021-08-24 23:28:00,,0826.9,5.00,0.00,28.8,27.5,00.0,37.8,30.7,15.9,0002.3,0011.44,0004.50,0004.10
2021-08-24 23:29:00,,0826.9,5.00,0.00,28.9,27.9,00.0,37.8,30.9,15.9,0002.2,0010.73,0004.52,0004.10
2021-08-24 23:30:00,,0826.9,5.01,0.00,28.9,27.1,00.0,37.8,30.6,15.3,0002.4,0009.92,0004.51,0004.09
2021-08-24 23:31:00,,0826.9,5.01,0.00,28.8,25.5,00.0,37.8,30.1,15.7,0003.1,0009.71,0004.53,0004.10
2021-08-24 23:32:00,,0826.9,5.00,0.00,28.7,25.6,00.0,37.8,30.1,14.9,0002.9,0010.29,0004.54,0004.11
2021-08-24 23:33:00,,0826.9,5.00,0.00,28.7,26.1,00.0,37.8,30.3,15.1,0002.7,0010.41,0004.56,0004.11
2021-08-24 23:34:00,,0826.9,5.00,0.00,28.7,26.6,00.0,37.8,30.4,15.9,0002.7,0010.61,0004.60,0004.11
2021-08-24 23:35:00,,0826.9,5.00,0.00,28.7,27.0,00.0,37.7,30.5,16.2,0002.2,0010.84,0004.65,0004.12
2021-08-24 23:36:00,,0826.9,5.00,0.00,28.8,27.3,00.0,37.8,30.7,15.3,0001.9,0010.78,0004.67,0004.12
2021-08-24 23:37:00,,0827.1,5.00,0.00,28.9,27.6,00.0,37.8,30.8,14.7,0001.9,0010.31,0004.67,0004.12
2021-08-24 23:38:00,,0826.9,5.01,0.00,28.9,27.0,00.0,37.8,30.6,14.4,0001.6,0010.51,0004.68,0004.12
2021-08-24 23:39:00,,0827.0,5.00,0.00,28.7,25.5,00.0,37.8,30.1,14.7,0001.2,0010.50,0004.68,0004.12
2021-08-24 23:40:00,,0826.9,5.00,0.00,28.7,25.6,00.0,37.7,30.1,15.5,0001.3,0010.07,0004.68,0004.13
2021-08-24 23:41:00,,0827.1,4.99,0.00,28.6,26.0,00.0,37.7,30.2,15.8,0001.0,0010.04,0004.71,0004.11
2021-08-24 23:42:00,,0827.1,5.01,0.00,28.6,26.4,00.0,37.7,30.3,16.1,0000.4,0010.01,0004.71,0004.11
2021-08-24 23:43:00,,0827.1,5.00,0.00,28.7,26.9,00.0,37.7,30.5,16.2,0000.8,0009.67,0004.71,0004.11
2021-08-24 23:44:00,,0827.2,5.00,0.00,28.8,27.3,00.0,37.7,30.6,16.4,0001.5,0010.95,0004.74,0004.11
2021-08-24 23:45:00,,0827.2,5.01,0.00,28.8,27.7,00.0,37.8,30.8,15.9,0001.0,0011.16,0004.73,0004.10
2021-08-24 23:46:00,,0827.1,4.99,0.00,28.9,28.0,00.0,37.8,30.9,16.2,0001.3,0011.72,0004.73,0004.08
2021-08-24 23:47:00,,0827.1,5.00,0.00,28.9,27.4,00.0,37.8,30.7,16.2,0001.6,0011.79,0004.74,0004.07
2021-08-24 23:48:00,,0827.0,5.00,0.00,28.8,25.8,00.0,37.8,30.3,16.5,0001.6,0011.89,0004.78,0004.07
2021-08-24 23:49:00,,0827.0,5.00,0.00,28.7,25.7,00.0,37.8,30.2,16.1,0001.5,0011.71,0004.77,0004.06
2021-08-24 23:50:00,,0827.1,5.01,0.00,28.7,26.2,00.0,37.8,30.3,16.1,0001.6,0011.84,0004.78,0004.06
2021-08-24 23:51:00,,0826.9,5.00,0.00,28.7,26.6,00.0,37.8,30.4,16.2,0001.8,0012.19,0004.76,0004.05
2021-08-24 23:52:00,,0827.1,5.00,0.00,28.7,27.0,00.0,37.8,30.5,16.1,0002.0,0012.10,0004.77,0004.06
2021-08-24 23:53:00,,0827.0,4.98,0.00,28.8,27.4,00.0,37.8,30.7,15.8,0001.9,0011.47,0004.78,0004.06
2021-08-24 23:54:00,,0827.1,5.00,0.00,28.9,27.8,00.0,37.8,30.8,15.7,0001.7,0011.27,0004.77,0004.06
2021-08-24 23:55:00,,0827.0,5.01,0.00,28.9,27.9,00.0,37.8,30.9,15.6,0001.1,0010.73,0004.76,0004.05
2021-08-24 23:56:00,,0826.9,5.00,0.00,28.9,26.5,00.0,37.8,30.5,15.6,0001.4,0010.53,0004.76,0004.06
2021-08-24 23:57:00,,0826.9,5.01,0.00,28.8,25.5,00.0,37.8,30.1,15.5,0001.7,0010.61,0004.74,0004.06
2021-08-24 23:58:00,,0827.0,4.99,0.00,28.7,25.9,00.0,37.8,30.2,16.1,0001.5,0010.95,0004.72,0004.06
2021-08-24 23:59:00,,0827.0,5.01,0.00,28.7,26.3,00.0,37.8,30.3,15.5,0001.4,0011.09,0004.71,0004.06
